EW6851 Weather Reports


Display with metric or nautical units.
time (UTC)temp
F
wind
direction
speed
MPH
gust
MPH
rain 1hr
in
rain 24hr
in
rain mn
in
humidity
%
barometer
mb
20260906235146 77 168 2.0 5.0 0.00 0.00 0.00 62 1020.3
20260906234646 77 193 1.0 6.0 0.00 0.00 0.00 62 1020.2
20260906234149 77 137 4.0 6.0 0.00 0.00 0.00 62 1020.2
20260906233646 77 196 1.0 7.0 0.00 0.00 0.00 62 1020.3
20260906233146 77 173 2.0 6.0 0.00 0.00 0.00 62 1020.2
20260906232646 77 157 4.0 6.0 0.00 0.00 0.00 62 1020.2
20260906232146 77 155 2.0 6.0 0.00 0.00 0.00 62 1020.3
20260906231649 77 165 2.0 5.0 0.00 0.00 0.00 61 1020.3
20260906231146 78 141 2.0 4.0 0.00 0.00 0.00 61 1020.3
20260906230643 78 118 4.0 4.0 0.00 0.00 0.00 61 1020.3
20260906230143 78 128 3.0 6.0 0.00 0.00 0.00 61 1020.3
20260906225652 78 133 1.0 6.0 0.00 0.00 0.00 61 1020.3
20260906225149 78 157 1.0 5.0 0.00 0.00 0.00 61 1020.4
20260906224649 78 127 2.0 3.0 0.00 0.00 0.00 61 1020.4
20260906224149 78 131 1.0 6.0 0.00 0.00 0.00 61 1020.4
20260906223649 78 128 0.0 5.0 0.00 0.00 0.00 61 1020.4
20260906223146 78 103 2.0 6.0 0.00 0.00 0.00 61 1020.4
20260906222649 78 155 0.0 7.0 0.00 0.00 0.00 62 1020.4
20260906222146 78 144 3.0 6.0 0.00 0.00 0.00 62 1020.5
20260906221646 78 166 0.0 5.0 0.00 0.00 0.00 62 1020.5
20260906221149 78 163 5.0 6.0 0.00 0.00 0.00 62 1020.5
20260906220643 78 146 2.0 6.0 0.00 0.00 0.00 62 1020.5
20260906220149 79 167 3.0 4.0 0.00 0.00 0.00 62 1020.5
20260906215643 79 221 2.0 4.0 0.00 0.00 0.00 62 1020.4
20260906215143 79 139 2.0 5.0 0.00 0.00 0.00 63 1020.4
20260906214646 78 155 2.0 4.0 0.00 0.00 0.00 62 1020.4
20260906214143 79 156 4.0 5.0 0.00 0.00 0.00 63 1020.4
20260906213646 79 143 2.0 5.0 0.00 0.00 0.00 63 1020.3
20260906213143 79 182 1.0 5.0 0.00 0.00 0.00 64 1020.3
20260906212643 79 118 0.0 3.0 0.00 0.00 0.00 64 1020.3
20260906212143 79 136 1.0 4.0 0.00 0.00 0.00 65 1020.3
20260906211643 79 140 2.0 4.0 0.00 0.00 0.00 65 1020.3
20260906211143 79 133 2.0 4.0 0.00 0.00 0.00 65 1020.3
20260906210646 79 162 1.0 5.0 0.00 0.00 0.00 65 1020.3
20260906210143 79 123 1.0 6.0 0.00 0.00 0.00 65 1020.3
20260906205652 79 157 2.0 7.0 0.00 0.00 0.00 65 1020.2
20260906205146 79 162 2.0 6.0 0.00 0.00 0.00 65 1020.2
20260906204643 79 199 1.0 6.0 0.00 0.00 0.00 66 1020.3
20260906204146 80 134 0.0 5.0 0.00 0.00 0.00 66 1020.3
20260906203646 80 157 2.0 6.0 0.00 0.00 0.00 66 1020.3
20260906203149 80 161 2.0 5.0 0.00 0.00 0.00 67 1020.3
20260906202643 80 101 0.0 3.0 0.00 0.00 0.00 68 1020.3
20260906202143 80 161 1.0 4.0 0.00 0.00 0.00 69 1020.3
20260906201643 80 136 2.0 4.0 0.00 0.00 0.00 70 1020.3
20260906201143 80 112 0.0 4.0 0.00 0.00 0.00 70 1020.3
20260906200643 80 113 2.0 4.0 0.00 0.00 0.00 70 1020.2
20260906200146 80 249 1.0 4.0 0.00 0.00 0.00 70 1020.3
20260906195646 81 88 1.0 4.0 0.00 0.00 0.00 70 1020.3
20260906195146 81 130 2.0 4.0 0.00 0.00 0.00 71 1020.3
20260906194646 81 189 1.0 6.0 0.00 0.00 0.00 72 1020.4
20260906194149 81 138 1.0 5.0 0.00 0.00 0.00 72 1020.4
20260906193646 81 90 0.0 6.0 0.00 0.00 0.00 72 1020.4
20260906193143 81 165 2.0 7.0 0.00 0.00 0.00 72 1020.4
20260906192643 81 109 1.0 5.0 0.00 0.00 0.00 72 1020.4
20260906192143 81 148 3.0 5.0 0.00 0.00 0.00 72 1020.3
20260906191649 82 122 0.0 5.0 0.00 0.00 0.00 72 1020.4
20260906191143 82 121 2.0 4.0 0.00 0.00 0.00 72 1020.3
20260906190649 82 161 0.0 2.0 0.00 0.00 0.00 72 1020.2
20260906190149 82 158 0.0 5.0 0.00 0.00 0.00 72 1020.2
20260906185646 82 185 2.0 5.0 0.00 0.00 0.00 72 1020.2
20260906185143 83 87 0.0 3.0 0.00 0.00 0.00 72 1020.2
20260906184652 83 117 2.0 3.0 0.00 0.00 0.00 72 1020.2
20260906184143 83 313 0.0 2.0 0.00 0.00 0.00 73 1020.1
20260906183646 83 190 2.0 2.0 0.00 0.00 0.00 76 1020.1
20260906183143 83 116 0.0 0.0 0.00 0.00 0.00 76 1020.1
20260906182643 83 116 0.0 0.0 0.00 0.00 0.00 75 1020.0
20260906182152 83 107 0.0 3.0 0.00 0.00 0.00 75 1019.9
20260906181643 83 107 3.0 5.0 0.00 0.00 0.00 75 1019.9
20260906181149 83 94 0.0 3.0 0.00 0.00 0.00 74 1019.8
20260906180646 83 120 2.0 5.0 0.00 0.00 0.00 74 1019.8
20260906180143 84 110 0.0 0.0 0.00 0.00 0.00 75 1019.8
20260906175643 84 41 0.0 0.0 0.00 0.00 0.00 75 1019.7
20260906175143 83 41 0.0 0.0 0.00 0.00 0.00 75 1019.7
20260906174646 83 41 0.0 4.0 0.00 0.00 0.00 75 1019.6
20260906174149 84 24 0.0 5.0 0.00 0.00 0.00 74 1019.5
20260906173652 84 347 2.0 4.0 0.00 0.00 0.00 74 1019.6
20260906173146 84 13 2.0 4.0 0.00 0.00 0.00 73 1019.5
20260906172646 84 17 0.0 5.0 0.00 0.00 0.00 72 1019.5
20260906172146 84 5 3.0 5.0 0.00 0.00 0.00 72 1019.5
20260906171643 84 34 3.0 6.0 0.00 0.00 0.00 72 1019.5
20260906171146 84 22 3.0 4.0 0.00 0.00 0.00 71 1019.4
20260906170643 85 67 2.0 7.0 0.00 0.00 0.00 70 1019.4
20260906170143 85 16 4.0 6.0 0.00 0.00 0.00 70 1019.4
20260906165646 85 36 4.0 6.0 0.00 0.00 0.00 69 1019.4
20260906165143 85 5 1.0 5.0 0.00 0.00 0.00 68 1019.4
20260906164643 85 313 2.0 7.0 0.00 0.00 0.00 68 1019.4
20260906164143 85 348 3.0 6.0 0.00 0.00 0.00 68 1019.4
20260906163643 85 34 5.0 7.0 0.00 0.00 0.00 68 1019.3
20260906163143 85 46 3.0 8.0 0.00 0.00 0.00 68 1019.3
20260906162646 86 315 5.0 7.0 0.00 0.00 0.00 67 1019.3
20260906162149 86 20 3.0 7.0 0.00 0.00 0.00 66 1019.3
20260906161644 87 35 6.0 6.0 0.00 0.00 0.00 65 1019.3
20260906161152 87 16 4.0 10.0 0.00 0.00 0.00 66 1019.2
20260906160646 87 313 2.0 7.0 0.00 0.00 0.00 66 1019.2
20260906160146 87 310 6.0 7.0 0.00 0.00 0.00 65 1019.2
20260906155652 88 316 6.0 10.0 0.00 0.00 0.00 65 1019.2
20260906155143 88 337 3.0 9.0 0.00 0.00 0.00 64 1019.3
20260906154643 88 337 7.0 8.0 0.00 0.00 0.00 64 1019.3
20260906154146 88 340 5.0 8.0 0.00 0.00 0.00 64 1019.2
20260906153643 88 317 5.0 9.0 0.00 0.00 0.00 63 1019.1
20260906153143 88 307 3.0 8.0 0.00 0.00 0.00 64 1019.1
20260906152643 88 317 5.0 7.0 0.00 0.00 0.00 64 1019.1
20260906152143 88 312 3.0 8.0 0.00 0.00 0.00 65 1019.1
20260906151643 88 345 2.0 7.0 0.00 0.00 0.00 65 1019.1
20260906151146 88 355 3.0 5.0 0.00 0.00 0.00 66 1019.1
20260906150652 88 334 4.0 9.0 0.00 0.00 0.00 65 1019.1
20260906150143 88 313 6.0 9.0 0.00 0.00 0.00 65 1019.1
20260906145643 88 306 4.0 9.0 0.00 0.00 0.00 65 1019.1
20260906145143 88 279 5.0 7.0 0.00 0.00 0.00 65 1019.1
20260906144643 88 343 7.0 9.0 0.00 0.00 0.00 65 1019.1
20260906144150 88 303 9.0 10.0 0.00 0.00 0.00 65 1019.1
20260906143649 88 271 7.0 9.0 0.00 0.00 0.00 64 1019.1
20260906143146 89 295 8.0 9.0 0.00 0.00 0.00 64 1019.0
20260906142643 89 342 5.0 10.0 0.00 0.00 0.00 63 1019.0
20260906142149 89 328 3.0 10.0 0.00 0.00 0.00 63 1019.1
20260906141643 89 277 3.0 8.0 0.00 0.00 0.00 64 1019.0
20260906141149 89 351 3.0 8.0 0.00 0.00 0.00 64 1019.0
20260906140643 89 250 5.0 9.0 0.00 0.00 0.00 65 1019.0
20260906140149 89 329 1.0 10.0 0.00 0.00 0.00 64 1019.0
20260906135643 89 294 7.0 10.0 0.00 0.00 0.00 64 1019.0
20260906135143 89 312 5.0 9.0 0.00 0.00 0.00 63 1019.0
20260906134647 89 329 5.0 11.0 0.00 0.00 0.00 62 1019.1
20260906134143 89 286 4.0 9.0 0.00 0.00 0.00 62 1019.1
20260906133643 89 328 4.0 10.0 0.00 0.00 0.00 61 1019.0
20260906133146 89 311 6.0 10.0 0.00 0.00 0.00 60 1019.1
20260906132646 89 288 8.0 11.0 0.00 0.00 0.00 60 1019.1
20260906132143 90 317 2.0 10.0 0.00 0.00 0.00 59 1019.1
20260906131646 90 311 11.0 12.0 0.00 0.00 0.00 58 1019.1
20260906131149 90 289 3.0 10.0 0.00 0.00 0.00 59 1019.1
20260906130646 90 323 9.0 11.0 0.00 0.00 0.00 58 1019.1
20260906130146 90 328 3.0 9.0 0.00 0.00 0.00 56 1019.1
20260906125646 90 13 6.0 10.0 0.00 0.00 0.00 54 1019.1
20260906125143 90 319 3.0 8.0 0.00 0.00 0.00 55 1019.1
20260906124650 90 284 0.0 11.0 0.00 0.00 0.00 54 1019.2
20260906124150 90 40 3.0 7.0 0.00 0.00 0.00 55 1019.2
20260906123644 90 327 6.0 11.0 0.00 0.00 0.00 54 1019.2
20260906123146 90 317 6.0 10.0 0.00 0.00 0.00 55 1019.1
20260906122644 90 349 7.0 11.0 0.00 0.00 0.00 55 1019.1
20260906122146 90 298 3.0 7.0 0.00 0.00 0.00 57 1019.1
20260906121647 90 5 4.0 9.0 0.00 0.00 0.00 55 1019.1
20260906121147 90 18 7.0 7.0 0.00 0.00 0.00 56 1019.1
20260906120647 90 286 5.0 12.0 0.00 0.00 0.00 56 1019.1
20260906120144 90 323 3.0 13.0 0.00 0.00 0.00 57 1019.1
20260906115647 90 306 9.0 10.0 0.00 0.00 0.00 54 1019.0
20260906115144 90 344 3.0 9.0 0.00 0.00 0.00 54 1019.1
20260906114653 90 52 4.0 7.0 0.00 0.00 0.00 54 1019.1
20260906114144 90 343 2.0 7.0 0.00 0.00 0.00 52 1019.1
20260906113653 90 30 3.0 7.0 0.00 0.00 0.00 51 1019.2
20260906113153 90 26 4.0 10.0 0.00 0.00 0.00 51 1019.1
20260906112644 90 340 6.0 10.0 0.00 0.00 0.00 53 1019.2
20260906112144 91 40 6.0 9.0 0.00 0.00 0.00 50 1019.2
20260906111644 91 343 4.0 9.0 0.00 0.00 0.00 51 1019.2
20260906111150 91 5 3.0 7.0 0.00 0.00 0.00 49 1019.1
20260906110644 91 309 7.0 9.0 0.00 0.00 0.00 49 1019.1
20260906110147 91 28 2.0 8.0 0.00 0.00 0.00 50 1019.1
20260906105650 90 27 1.0 7.0 0.00 0.00 0.00 47 1019.1
20260906105144 90 305 2.0 12.0 0.00 0.00 0.00 47 1019.2
20260906104650 90 5 3.0 9.0 0.00 0.00 0.00 45 1019.2
20260906104147 90 272 3.0 8.0 0.00 0.00 0.00 46 1019.3
20260906103644 90 344 6.0 8.0 0.00 0.00 0.00 46 1019.3
20260906103144 89 303 5.0 8.0 0.00 0.00 0.00 47 1019.4
20260906102647 89 311 3.0 7.0 0.00 0.00 0.00 48 1019.3
20260906102144 89 333 5.0 8.0 0.00 0.00 0.00 49 1019.4
20260906101647 89 322 5.0 8.0 0.00 0.00 0.00 50 1019.4
20260906101147 89 328 4.0 9.0 0.00 0.00 0.00 50 1019.5
20260906100647 89 325 3.0 8.0 0.00 0.00 0.00 50 1019.5
20260906100144 89 306 5.0 6.0 0.00 0.00 0.00 50 1019.5
20260906095644 89 35 3.0 8.0 0.00 0.00 0.00 51 1019.5
20260906095150 89 47 2.0 6.0 0.00 0.00 0.00 51 1019.6
20260906094644 89 305 3.0 8.0 0.00 0.00 0.00 52 1019.6
20260906094144 89 305 8.0 8.0 0.00 0.00 0.00 54 1019.6
20260906093650 88 14 0.0 6.0 0.00 0.00 0.00 53 1019.7
20260906093144 88 304 3.0 7.0 0.00 0.00 0.00 56 1019.7
20260906092644 88 338 0.0 6.0 0.00 0.00 0.00 57 1019.7
20260906092144 88 310 5.0 9.0 0.00 0.00 0.00 58 1019.8
20260906091644 88 36 2.0 5.0 0.00 0.00 0.00 58 1019.8
20260906091150 88 300 6.0 7.0 0.00 0.00 0.00 59 1019.9
20260906090644 88 355 3.0 6.0 0.00 0.00 0.00 60 1019.9
20260906090147 88 285 4.0 6.0 0.00 0.00 0.00 61 1019.8
20260906085647 87 279 3.0 5.0 0.00 0.00 0.00 62 1019.8
20260906085144 87 340 1.0 6.0 0.00 0.00 0.00 62 1019.8
20260906084644 87 231 0.0 4.0 0.00 0.00 0.00 63 1019.7
20260906084144 87 277 2.0 6.0 0.00 0.00 0.00 63 1019.8
20260906083644 87 257 4.0 5.0 0.00 0.00 0.00 63 1019.8
20260906083144 88 348 2.0 7.0 0.00 0.00 0.00 63 1019.8
20260906082650 88 283 4.0 5.0 0.00 0.00 0.00 62 1019.8
20260906082144 88 238 0.0 2.0 0.00 0.00 0.00 59 1019.8
20260906081644 87 320 2.0 3.0 0.00 0.00 0.00 59 1019.8
20260906081148 87 320 2.0 3.0 0.00 0.00 0.00 61 1019.8
20260906080647 86 320 2.0 4.0 0.00 0.00 0.00 62 1019.7
20260906080144 86 300 0.0 3.0 0.00 0.00 0.00 64 1019.7
20260906075647 85 90 3.0 5.0 0.00 0.00 0.00 63 1019.7
20260906075147 85 44 0.0 3.0 0.00 0.00 0.00 63 1019.7
20260906074650 85 19 3.0 4.0 0.00 0.00 0.00 64 1019.6
20260906074144 85 5 1.0 5.0 0.00 0.00 0.00 65 1019.6
20260906073644 85 12 5.0 5.0 0.00 0.00 0.00 66 1019.7
20260906073145 85 26 3.0 3.0 0.00 0.00 0.00 67 1019.6
20260906072650 85 303 0.0 4.0 0.00 0.00 0.00 68 1019.7
20260906072144 84 302 3.0 3.0 0.00 0.00 0.00 70 1019.6
20260906071644 84 348 0.0 3.0 0.00 0.00 0.00 70 1019.6
20260906071144 84 295 0.0 4.0 0.00 0.00 0.00 70 1019.6
20260906070644 83 240 0.0 3.0 0.00 0.00 0.00 68 1019.5
20260906070147 83 247 2.0 4.0 0.00 0.00 0.00 67 1019.5
20260906065644 83 178 0.0 0.0 0.00 0.00 0.00 68 1019.5
20260906065144 82 178 0.0 3.0 0.00 0.00 0.00 67 1019.4
20260906064644 82 182 1.0 4.0 0.00 0.00 0.00 66 1019.4
20260906064153 82 183 3.0 4.0 0.00 0.00 0.00 64 1019.3
20260906063644 82 182 1.0 3.0 0.00 0.00 0.00 63 1019.4
20260906063144 81 171 0.0 4.0 0.00 0.00 0.00 63 1019.3
20260906062650 81 206 1.0 4.0 0.00 0.00 0.00 62 1019.3
20260906062144 80 148 1.0 4.0 0.00 0.00 0.00 62 1019.3
20260906061650 80 132 3.0 4.0 0.00 0.00 0.00 62 1019.4
20260906061150 80 153 1.0 3.0 0.00 0.00 0.00 62 1019.3
20260906060644 79 150 1.0 5.0 0.00 0.00 0.00 63 1019.4
20260906060144 79 117 2.0 5.0 0.00 0.00 0.00 63 1019.4
20260906055644 78 141 2.0 5.0 0.00 0.00 0.00 63 1019.3
20260906055147 78 143 2.0 5.0 0.00 0.00 0.00 63 1019.2
20260906054644 77 236 1.0 7.0 0.00 0.00 0.00 64 1019.2
20260906054147 77 153 3.0 5.0 0.00 0.00 0.00 64 1019.2
20260906053651 76 168 2.0 6.0 0.00 0.00 0.00 65 1019.1
20260906053144 76 138 1.0 7.0 0.00 0.00 0.00 64 1019.1
20260906052644 76 215 1.0 7.0 0.00 0.00 0.00 64 1019.1
20260906052147 76 145 4.0 7.0 0.00 0.00 0.00 64 1019.0
20260906051653 75 175 4.0 7.0 0.00 0.00 0.00 63 1019.1
20260906051144 75 167 1.0 5.0 0.00 0.00 0.00 63 1019.1
20260906050648 75 192 3.0 6.0 0.00 0.00 0.00 63 1019.1
20260906050147 75 163 3.0 7.0 0.00 0.00 0.00 62 1019.1
20260906045644 75 140 2.0 6.0 0.00 0.00 0.00 62 1019.1
20260906045150 75 149 3.0 6.0 0.00 0.00 0.00 61 1019.1
20260906044647 75 193 2.0 5.0 0.00 0.00 0.00 61 1019.0
20260906044148 75 173 2.0 7.0 0.00 0.00 0.00 60 1018.9
20260906043647 75 166 2.0 7.0 0.00 0.00 0.00 60 1018.9
20260906043147 75 144 2.0 8.0 0.00 0.00 0.00 60 1018.9
20260906042644 75 144 7.0 8.0 0.00 0.00 0.00 60 1018.9
20260906042147 75 159 4.0 8.0 0.00 0.00 0.00 59 1019.0
20260906041644 75 155 5.0 6.0 0.00 0.00 0.00 59 1018.9
20260906041144 75 136 1.0 8.0 0.00 0.00 0.00 59 1018.9
20260906040650 75 132 4.0 6.0 0.00 0.00 0.00 59 1018.7
20260906040150 75 152 4.0 7.0 0.00 0.00 0.00 58 1018.7
20260906035644 75 94 3.0 5.0 0.00 0.00 0.00 58 1018.7
20260906035144 75 150 5.0 6.0 0.00 0.00 0.00 58 1018.7
20260906034648 75 162 3.0 5.0 0.00 0.00 0.00 58 1018.7
20260906034147 75 170 2.0 7.0 0.00 0.00 0.00 58 1018.6
20260906033647 75 98 2.0 5.0 0.00 0.00 0.00 58 1018.5
20260906033144 76 128 4.0 6.0 0.00 0.00 0.00 57 1018.4
20260906032644 75 192 2.0 6.0 0.00 0.00 0.00 57 1018.4
20260906032144 75 146 3.0 6.0 0.00 0.00 0.00 57 1018.4
20260906031653 75 165 5.0 7.0 0.00 0.00 0.00 57 1018.5
20260906031144 76 160 3.0 6.0 0.00 0.00 0.00 56 1018.5
20260906030647 76 161 1.0 6.0 0.00 0.00 0.00 56 1018.5
20260906030144 76 234 1.0 8.0 0.00 0.00 0.00 56 1018.5
20260906025644 76 149 3.0 8.0 0.00 0.00 0.00 56 1018.5
20260906025144 76 131 2.0 7.0 0.00 0.00 0.00 56 1018.4
20260906024644 76 153 3.0 7.0 0.00 0.00 0.00 56 1018.5
20260906024144 76 167 2.0 8.0 0.00 0.00 0.00 56 1018.6
20260906023644 76 157 7.0 7.0 0.00 0.00 0.00 56 1018.6
20260906023144 76 131 3.0 8.0 0.00 0.00 0.00 56 1018.7
20260906022647 76 145 3.0 5.0 0.00 0.00 0.00 56 1018.7
20260906022144 76 161 3.0 7.0 0.00 0.00 0.00 56 1018.7
20260906021647 76 142 1.0 7.0 0.00 0.00 0.00 56 1018.7
20260906021147 76 175 1.0 4.0 0.00 0.00 0.00 57 1018.7
20260906020650 76 173 3.0 7.0 0.00 0.00 0.00 57 1018.7
20260906020145 76 146 1.0 6.0 0.00 0.00 0.00 58 1018.7
20260906015642 76 153 4.0 6.0 0.00 0.00 0.00 58 1018.7
20260906015142 76 136 5.0 8.0 0.00 0.00 0.00 58 1018.6
20260906014645 76 155 5.0 7.0 0.00 0.00 0.00 59 1018.7
20260906014142 76 167 0.0 4.0 0.00 0.00 0.00 59 1018.7
20260906013648 76 171 1.0 5.0 0.00 0.00 0.00 59 1018.6
20260906013142 76 173 3.0 5.0 0.00 0.00 0.00 60 1018.7
20260906012648 76 144 4.0 4.0 0.00 0.00 0.00 60 1018.6
20260906012142 76 148 1.0 6.0 0.00 0.00 0.00 61 1018.6
20260906011642 76 149 4.0 4.0 0.00 0.00 0.00 62 1018.6
20260906011142 76 151 1.0 4.0 0.00 0.00 0.00 62 1018.6
20260906010645 76 131 3.0 5.0 0.00 0.00 0.00 62 1018.6
20260906010142 76 167 3.0 5.0 0.00 0.00 0.00 62 1018.6
20260906005648 76 161 1.0 5.0 0.00 0.00 0.00 63 1018.6
20260906005146 77 169 4.0 7.0 0.00 0.00 0.00 62 1018.6
20260906004646 77 150 5.0 8.0 0.00 0.00 0.00 62 1018.6
20260906004148 77 139 1.0 5.0 0.00 0.00 0.00 63 1018.7
20260906003645 77 102 3.0 5.0 0.00 0.00 0.00 63 1018.7
20260906003149 77 142 2.0 6.0 0.00 0.00 0.00 64 1018.7
20260906002642 77 155 4.0 5.0 0.00 0.00 0.00 64 1018.8
20260906002151 77 184 4.0 7.0 0.00 0.00 0.00 64 1018.8
20260906001642 77 170 2.0 6.0 0.00 0.00 0.00 64 1018.8
20260906001145 77 191 6.0 7.0 0.00 0.00 0.00 64 1018.8
20260906000642 77 171 3.0 6.0 0.00 0.00 0.00 65 1018.8
20260906000148 77 105 5.0 7.0 0.00 0.00 0.00 66 1018.8
20260905235648 77 196 3.0 7.0 0.00 0.00 0.00 66 1019.0